Location: Central Falls
(41.8900°N, 71.3929°W)
Time: 04:06:29
(UTC+00:00)

Tiros 1 - Pass Details

Date: 14 December 2023
Orbit: 625 x 658 km, 48.4° (Epoch: 01 March)

Event Time Altitude Azimuth Distance (km) Brightness Sun altitude
Rises 06:17:25 0° 249° (WSW) 2,952 - -62.4°
Reaches altitude 10° 06:19:45 10° 251° (WSW) 2,049 - -62.1°
Maximum altitude 06:24:29 70° 336° (NNW) 696 - -61.3°
Drops below altitude 10° 06:29:15 10° 60° (ENE) 2,071 - -60.6°
Sets 06:31:38 0° 63° (ENE) 2,987 - -60.2°
